Location: Unspecified
(34.2597°N, 0.0000°E)
Time: 19:31:25
(UTC+00:00)

Cosmos 2360 Rocket - Visible Passes

Search period start: 04 April 2026 00:00
Search period end: 14 April 2026 00:00
Orbit: 832 x 844 km, 71.0° (Epoch: 29 March)

Date Brightness Start Highest point End Pass type
(mag) Time Alt. Az. Time Alt. Az. Time Alt. Az.
4 Apr 2.1 20:26:45 10° SSW 20:32:22 82° WNW 20:38:01 10° NNE visible
4 Apr 5.2 22:16:28 10° WNW 22:17:11 10° NW 22:17:54 10° NW visible
5 Apr 2.1 20:10:38 10° SSW 20:16:15 88° WNW 20:21:54 10° NNE visible
5 Apr 5.2 21:59:21 10° WNW 22:00:59 11° NW 22:02:37 10° NW visible
6 Apr 4.9 05:08:51 10° N 05:13:18 23° ENE 05:17:43 10° ESE visible
6 Apr 2.1 19:54:31 10° SSW 20:00:08 85° ESE 20:05:47 10° NNE visible
6 Apr 5.1 21:42:38 10° WNW 21:44:48 12° NW 21:46:59 10° NNW visible
7 Apr 5.0 04:52:52 10° N 04:57:09 21° ENE 05:01:24 10° ESE visible
7 Apr 2.1 19:38:26 10° SSW 19:44:01 79° ESE 19:49:40 10° NNE visible
7 Apr 5.1 21:26:02 10° W 21:28:37 13° NW 21:31:13 10° NNW visible
8 Apr 5.0 04:36:54 10° NNE 04:40:59 20° ENE 04:45:02 10° ESE visible
8 Apr 2.1 19:22:20 10° SSW 19:27:54 73° ESE 19:33:32 10° NNE visible
8 Apr 5.1 21:09:30 10° W 21:12:26 14° NW 21:15:23 10° NNW visible
9 Apr 5.1 04:20:56 10° NNE 04:24:49 19° ENE 04:28:40 10° E visible
9 Apr 2.1 19:06:15 10° S 19:11:48 67° ESE 19:17:24 10° NNE visible
9 Apr 5.1 20:53:02 10° W 20:56:16 15° NW 20:59:31 10° NNW visible
10 Apr 5.2 04:05:00 10° NNE 04:08:38 17° ENE 04:12:17 10° E visible
10 Apr 2.2 18:50:11 10° S 18:55:42 62° ESE 19:01:15 10° NNE visible
10 Apr 5.0 20:36:35 10° W 20:40:05 17° NW 20:43:36 10° NNW visible
11 Apr 5.2 03:49:04 10° NNE 03:52:28 16° NE 03:55:52 10° E visible
11 Apr 5.0 20:20:11 10° W 20:23:55 18° WNW 20:27:41 10° NNW visible
12 Apr 5.3 03:33:11 10° NNE 03:36:17 15° NE 03:39:24 10° E visible
12 Apr 5.0 20:03:48 10° WSW 20:07:45 19° WNW 20:11:43 10° NNW visible
13 Apr 5.3 03:17:19 10° NNE 03:20:07 14° NE 03:22:55 10° E visible
13 Apr 2.2 04:59:01 10° NNW 05:04:41 77° WSW 05:10:19 10° SSE visible
13 Apr 4.9 19:47:27 10° WSW 19:51:35 21° WNW 19:55:45 10° N visible
